Snowfall_Accumulation
0.0 0.0 0.0 0.0 0.0 0.0 0.0 0.0 0.0 0.0 0.0 0.0 0.0 0.0 0.1 0.5 0.5 0.5 0.5 0.5 0.3 0.3
0.0 0.0 0.0 0.0 0.0 0.0 0.0 0.0 0.0 0.0 0.0 0.0 0.2 0.5 0.8 1.3 1.3 1.0 1.0 0.7 0.6 0.5
0.0 0.0 0.0 0.0 0.0 0.0 0.0 0.0 0.0 0.0 0.0 0.2 0.9 1.3 1.8 2.3 2.1 1.5 0.7 0.7 1.0 0.6
0.0 0.0 0.0 0.0 0.0 0.0 0.0 0.0 0.0 0.1 0.4 1.2 2.4 2.0 2.2 2.6 1.9 1.2 0.8 0.7 0.8 0.7
0.0 0.0 0.0 0.0 0.0 0.0 0.0 0.0 0.1 0.3 1.3 2.5 2.6 2.3 2.7 2.4 1.4 1.0 0.9 0.8 0.9 0.7
0.0 0.0 0.0 0.0 0.0 0.0 0.0 0.1 0.2 0.6 2.6 3.8 3.0 3.2 2.7 1.9 1.4 1.0 1.0 1.4 1.6 0.7
0.0 0.0 0.0 0.0 0.0 0.0 0.1 0.2 0.3 1.0 3.5 4.6 4.0 3.5 2.7 1.3 1.8 1.9 1.8 1.6 1.0 0.3
0.0 0.0 0.0 0.0 0.0 0.1 0.3 0.3 0.4 0.9 2.6 3.9 4.8 4.6 3.5 2.3 1.9 2.8 2.5 1.5 0.5 0.0
0.0 0.0 0.0 0.0 0.0 0.0 0.5 0.4 0.5 1.0 2.0 3.2 4.9 3.7 3.3 3.6 3.7 3.0 2.6 2.0 1.3 0.8
0.0 0.0 0.0 0.0 0.0 0.0 0.7 0.5 0.5 1.2 2.0 3.7 4.6 3.1 3.4 4.4 5.0 5.2 4.7 3.6 2.0 1.5
0.0 0.0 0.0 0.0 0.0 0.1 0.2 0.7 0.9 1.7 2.8 4.1 5.4 3.9 3.4 3.9 4.5 4.4 3.9 4.3 3.9 2.3
0.0 0.0 0.0 0.0 0.0 0.0 0.0 0.6 0.6 1.5 2.4 3.7 5.7 4.5 3.7 2.5 2.2 1.8 2.7 3.1 3.4 1.9
0.0 0.0 0.0 0.1 0.0 0.0 0.1 0.5 0.3 0.6 2.6 2.6 3.9 4.2 2.9 2.3 1.2 1.4 1.5 1.7 2.7 1.7
0.0 0.0 0.0 0.1 0.1 0.1 0.2 0.1 0.4 0.3 0.9 2.8 2.2 3.0 1.9 1.6 2.2 1.5 1.2 1.8 3.2 3.5